Chicago Midway International Airport (MDW)


Airport Diagram
Current Weather/Forecast (VFR Conditions)
METAR KMDW 300653Z 33009KT 10SM FEW048 SCT190 02/M06 A3012 RMK AO2 SLP206 T00171056 $
TAF KMDW 300520Z 3006/3112 34011KT P6SM BKN045 FM301200 34008KT P6SM SCT040 BKN120 FM302100 05008KT P6SM SCT025 SCT150 FM310000 12005KT P6SM FEW035 FM310600 16005KT P6SM SKC

All Charts
General
Chart Name Download
AIRPORT DIAGRAM
TAKEOFF MINIMUMS
ALTERNATE MINIMUMS
HOT SPOT

Departures
Chart Name Download
CICERO TWO
MIDWAY FIVE

Arrivals
Chart Name Download
ENDEE FOUR (RNAV)
ENDEE FOUR (RNAV), CONT.1
FISSK FOUR (RNAV)
GOSHEN SEVEN
MOTIF SIX
MOTIF SIX, CONT.1
PANGG THREE (RNAV)

Approaches
Chart Name Download
ILS OR LOC RWY 13C
ILS OR LOC/DME RWY 04R
ILS OR LOC/DME RWY 31C
RNAV (RNP) X RWY 22L
RNAV (RNP) Y RWY 04R
RNAV (RNP) Y RWY 13C
RNAV (RNP) Y RWY 22L
RNAV (RNP) Y RWY 31C
RNAV (GPS) RWY 04L
RNAV (GPS) RWY 13L
RNAV (GPS) RWY 22R
RNAV (GPS) RWY 31R
RNAV (GPS) Z RWY 04R
RNAV (GPS) Z RWY 13C
RNAV (GPS) Z RWY 22L
RNAV (GPS) Z RWY 31C